DMSP 5D-2 F13 DEB, 40403

Orbit data source: Space-Track

DMSP 5D-2 F13 DEB, 40403 is space debris in SSO originally from a launch on Fri, 24 Mar 1995 UTC launched from the Air Force Western Test Range (AFWTR). Debris objects in space refer to the collection of defunct objects orbiting the Earth. Examples of debris include non-operational satellites, rocket bodies, and fragments generated from explosions, collisions, or faulty payload assembly.

Loading next visibility...
Identifier
40403, 1995-015Q
Orbit
SSO
Country
Flag of USUS
Related business
Manufacturer
Unknown
Mission
Spacecraft
Bus & Motor
Unknown
Mass
Unknown
Launch date (UTC)
1995-03-24 (31 years ago)
Launch vehicle
Unknown
Launch site
Air Force Western Test Range (AFWTR)
Object type
Payload
Rocket body
Debris
Shape & HBR
Unknown shape, 0.1 m
Radar Cross Section
Small (<0.1 m²)

Expand to show TLE details & history
Last TLE update: 12 hours ago

TLE from 12 hours ago
0 DMSP 5D-2 F13 DEB
1 40403U 95015Q   25289.04780851  .00003693  00000-0  14517-2 0  9991
2 40403  98.6906 311.9901 0012204  25.8024 334.3764 14.29832983551870
Epoch: 2025-10-16T01:08Z
TLE epoch observation values (Epoch: 2025-10-16T01:08:50.655Z)
Latitude
-0.00004°
Longitude
-90.03409°
Altitude
787.328 km
Speed
7.464 km/s
True Right ascension
20h 47m 57s
True Declination
0° 00' 00"
Sunlit
Object was in daylight at epoch
Visualization orbit readout
Latitude
Unknown
Longitude
Unknown
Altitude
Unknown
Speed
Unknown
Apparent Right ascension
Unknown
Apparent Declination
Unknown
Sunlit
N/A
Visualization observer readout
Local Sidereal Time
07:49:40
Azimuth
Unknown
Elevation
Unknown
Doppler factor
Unknown
Orbital elements
Apogee altitude
798.181 km
Perigee altitude
780.686 km
Semi-major axis
7,167.571 km
Eccentricity
0.00122
Inclination
98.6906°
RAAN
311.9901°
Arg. of periapsis
25.8024°
True anomaly
334.31584°
Mean anomaly
334.3764°
Eccentric anomaly
334.34613°
Mean motion
3.57672 °/min
Orbital period
100.65 mins
BSTAR
0.0014517

Documentation

Showing up to 5 results
|